Погода Кемь-Порт

Погода Кемь-Порт : погода сейчас, прогноз погоды и архив. Всё, что Вы хотите узнать о погоде Кемь-Порт!

Поиск расширенной информации на нашем сайте:

Другие новости

Новости СМИ2

Главная страница сайта

Новости сайта

03.07.2017

Напоминаем, что на нашем специализированном сайте Метеоцентр.Азия вы можете получить высокодетализированные автоматические прогнозы погоды по пунктам России, СНГ и мира в авиационном формате (включающие направление и скорость ветра, видимость, явления погоды, количество и форму облачности, нижнюю и верхнюю границу облачности).


Погода Кемь-Порт - сегодня

Время (UTC), дата Ветер
(°,м/с) 
Видим.   Явления Облачность Т
(°С)
Тd
(°С)
f(%) Тe
(°С)
Pmin
(гПа)
dP
(гПа)
Po
(мм)
O2
(г/м3)
Тmin Tmax R s Состояние
почвы
18 19.10.17 300 (СЗ) 20000 м    4/0 средняя 
[Ac trans]
+0.9 -1.8 82 -2  1015.1  1.5  761  306    +3.8     
21 19.10.17 300 (СЗ) 20000 м    ясно 
-0.7 -1.7 93 -3  1016.4  1.3  762  308           
00 20.10.17 300 (СЗ) 20000 м    ясно 
-1.5 -2.2 95 -3  1017.2  0.7  762  309           
03 20.10.17 290 (З) 20000 м  {ливн. осадки}  3/0 средняя 
[Ac trans]
-1.7 -2.4 95 -4  1017.9  0.8  763  310  -1.8    0.0     
06 20.10.17 290 (З) 20000 м  {ливн. осадки}  4/0 средняя 
[Ac trans]
-1.6 -2.3 95 -4  1018.6  0.6  763  310  -2    0.0     
09 20.10.17 300 (СЗ) 20000 м    6/0 средняя 
[Ac trans]
+1.4 -1.8 79 -1  1019.5  0.9  764  306           
12 20.10.17 300 (СЗ) 20000 м    3/1 300 м верхняя 
[Sc|Ci fib]
+2.2 -2.4 72 1019.8  0.3  764  306           
15 20.10.17 290 (З) 20000 м    6/6 300 м 
[Sc]
-0.9 -2.8 87 -2  1020.3  0.5  765  309           
18 20.10.17 290 (З) 20000 м    ясно 
-1.1 -3.1 86 -4  1020.2  0.1  764  310    +2.3       
21 20.10.17 280 (З) 20000 м    ясно 
-1.9 -3.4 89 -5  1020.1  0.1  764  311           
00 21.10.17 280 (З) 20000 м    ясно 
-1.8 -3.4 89 -5  1019.6  -0.6  764  310           
03 21.10.17 260 (З) 20000 м    1/0 верхняя 
[Ci fib]
-1.9 -3.2 91 -5  1017.9  -1.6  763  310  -2.2         
06 21.10.17 270 (З) 6-11{11}  20000 м    6/0 средняя 
[Ac As]
-1.6 -4.2 82 -5  1015.9  -2  761  309  -2.2         
09 21.10.17 290 (З) 5{11}  20000 м    9/9 600 м 
[Sc]
+0.2 -3.6 76 -3  1015.5  -0.5  761  307           
12 21.10.17 290 (З) 5{12}  20000 м    9/9 300 м 
[Sc]
+0.7 -2.5 79 -2  1015.2  -0.3  761  306           
15 21.10.17 280 (З) 20000 м    9/9 300 м 
[Sc]
+0.1 -2.5 83 -2  1014.7  -0.5  760  307           
18 21.10.17 300 (СЗ) 4000 м  слаб. ливневой снег  10/10 420 м кучево-дожд. 
[Cb cap]
+0.2 -1.3 90 -2  1014.1  -0.6  760  306    +1  0.0     
21 21.10.17 300 (СЗ) 20000 м  {ливн. осадки}  6/0 средняя 
[Ac trans]
-0.4 -2 89 -3  1013.9  -0.2  760  307           
00 22.10.17 300 (СЗ) 20000 м  {ливн. осадки}  6/0 средняя 
[Ac trans]
-0.9 -1.7 94 -3  1013.3  -0.6  759  307           
03 22.10.17 300 (СЗ) 20000 м    9/0 средняя 
[Ac trans]
-0.5 -1.8 91 -4  1012.7  -0.6  759  307  -1    0.6     
06 22.10.17 300 (СЗ) 10 км  в посл. час ливневой снег  8/8 300 м кучево-дожд. 
[Cb calv]
-0.8 -2.1 91 -4  1013  0.3  759  307  -1    0.5     
09 22.10.17 310 (СЗ) 20000 м    8/8 600 м кучево-дожд. 
[Cb cap]
+1.7 -2.2 75 -1  1013.8  0.8  760  304           
12 22.10.17 330 (СЗ) 4{12}  20000 м  {ливн. осадки}  9/9 540 м кучево-дожд. 
[Cb calv]
+2.2 -0.6 82 1014.8  760  304           
15 22.10.17 020 (С) 3{11}  10 км  {ливн. осадки}  9/9 600 м кучево-дожд. 
[Cb calv]
+1.5 -0.2 88 1016.2  1.4  761  305         
18 22.10.17 020 (С) 4{11}  10 км  {ливн. осадки}  10/10 480 м 
[Sc]
+3.3 -0.8 74 +1  1018.2  763  304    +3.3     
Время (UTC), дата Ветер
(°,м/с) 
Видим.   Явления Облачность Т
(°С)
Тd
(°С)
f(%) Тe
(°С)
Pmin
(гПа)
dP
(гПа)
Po
(мм)
O2
(г/м3)
Тmin Tmax R s Состояние
почвы

Для получения пояснительной информации подведите курсор к названию столбца.

ПОГОДА Кемь-Порт - архив

Всё, что Вы хотите узнать о погоде Кемь-Порт - удобно и подробно!

Выберите нужную дату (начиная с 1 января 2015* года) и нажмите кнопку "Найти".
Будут отображены архивные сводки погоды по пункту Кемь-Порт, начиная с указанной даты.


Отображать данные в формате CSV (для использования в таблицах Excel)


Внимание! Наш архив погоды предназначен исключительно для личного некоммерческого использования в познавательных целях. Если Вам необходимы официальные справки о состоянии погоды (для производственных, юридических, коммерческих и т.п. целей), обращайтесь в органы Росгидромета.

*Примечание: данная дата относится к архиву по метеостанциям СССР (Россия, СНГ, Балтия).
Архив по метеостанциям Зарубежной Европы и Азии (кроме Китая) хранится 10 дней, по другим регионам земного шара (Китай, Африка, Америка, Австралия, Океания) - 1 день.

Кемь-Порт - район местоположения метеостанции


Название, широта, долгота, высота метеостанции:
Кемь-Порт 64.98°ш. 34.80°д. 8 м над ур. моря [Российская Федерация]

Дополнительная информация

В oтличие oт бoльшинства пoгoдных сайтoв мы публикуем пoдрoбную метеoинфoрмацию в детальнoм прoфессиoнальнoм фoрмате.

Характеристики температуры и влажнoсти вoздуха измеряются на высoте 2 м в тени вдали oт зданий и деревьев.
Скoрoсть ветра измеряется на высoте 10 м (на урoвне рoста челoвека скoрoсть ветра ниже в 1.5-2 раза). Если метеoстанция нахoдится в гoрoде или в лесу, тo скoрoсть ветра занижена на 2-4 м/с пo сравнению с oткрытым местoм. Скoрoсть ветра над акватoриями крупных рек и oзёр, а также на вершинах хoлмoв на 2-5 м/с выше, чем в oбычных услoвиях.
Атмoсфернoе давление в разных тoчках местнoсти мoжет значительнo oтличаться oт давления на метеoстанции, в зависимoсти oт услoвий рельефа (при пoдъёме на 10 м давление пoнижается примернo на 1 мм рт.ст.).